Olivia, MN

5:51 PM CST on November 18, 2017 (GMT -0600)
Olivia Regional

Weather History for KOVL - October, 2012

Change the Weather History Date:

Tuesday, October 23, 2012

  Actual Average (KRWF) Record (KRWF)
Temperature  
Mean Temperature 56 °F -  
Max Temperature 60 °F 57 °F 80 °F (1973)
Min Temperature 53 °F 37 °F 13 °F (1936)
Degree Days  
Heating Degree Days 8    
Growing Degree Days 6 (Base 50)    
Moisture  
Dew Point 54 °F    
Average Humidity 88    
Maximum Humidity 94    
Minimum Humidity 77    
Precipitation  
Precipitation 0.38 in - - ()
Sea Level Pressure  
Sea Level Pressure 29.72 in    
Wind  
Wind Speed 8 mph (SSE)    
Max Wind Speed 15 mph    
Max Gust Speed 18 mph    
Visibility 4 miles    
Events Fog , Rain , Thunderstorm    
Averages and records for this station are not official NWS values.
T = Trace of Precipitation, MM = Missing Value Source: NWS Daily Summary

Daily Weather History Graph

Daily Weather History Graph

Search for Another Location

Airport or City:

Trip Planner

Search our weather history database for the weather conditions in past years. The results will help you decide how hot, cold, wet, or windy it might be!

Date:

Astronomy

Oct. 23, 2012 Rise Set
Actual Time 7:46 AM CDT 6:21 PM CDT
Civil Twilight 7:16 AM CDT 6:51 PM CDT
Nautical Twilight 6:42 AM CDT 7:25 PM CDT
Astronomical Twilight 6:08 AM CDT 7:59 PM CDT
Moon 3:18 PM CDT (10/23) 1:24 AM CDT (10/23)
Length of Visible Light 11h 34m
Length of Day
10h 34m
Waxing Gibbous, 67% of the Moon is Illuminated
Oct 23
Waxing Gibbous
Oct 29
Full
Nov 6
Last Quarter
Nov 13
New
Nov 20
First Quarter

Hourly Weather History & Observations

Time (CDT) Temp. Dew Point Humidity Pressure Visibility Wind Dir Wind Speed Gust Speed Precip Events Conditions
12:11 AM 53.6 °F 46.4 °F 77% 29.81 in 10.0 mi East 8.1 mph - N/A Rain Light Rain
12:30 AM 53.6 °F 46.4 °F 77% 29.81 in 10.0 mi East 9.2 mph - N/A   Overcast
1:11 AM 53.6 °F 48.2 °F 82% 29.80 in 10.0 mi East 8.1 mph - N/A   Overcast
1:31 AM 53.6 °F 48.2 °F 82% 29.79 in 10.0 mi East 8.1 mph - N/A Thunderstorm Overcast
1:51 AM 53.6 °F 50.0 °F 88% 29.77 in 3.0 mi East 10.4 mph - 0.07 in Rain , Thunderstorm Heavy Thunderstorms and Rain
2:11 AM 53.6 °F 50.0 °F 88% 29.77 in 7.0 mi East 6.9 mph - 0.02 in Rain , Thunderstorm Heavy Thunderstorms and Rain
2:51 AM 53.6 °F 51.8 °F 94% 29.77 in 7.0 mi East 5.8 mph - 0.31 in Rain Light Rain
3:11 AM 53.6 °F 51.8 °F 94% 29.76 in 7.0 mi East 4.6 mph - N/A   Overcast
3:31 AM 53.6 °F 51.8 °F 94% 29.74 in 7.0 mi East 8.1 mph - N/A   Overcast
3:51 AM 53.6 °F 51.8 °F 94% 29.74 in 7.0 mi East 6.9 mph - N/A   Overcast
4:11 AM 53.6 °F 51.8 °F 94% 29.73 in 7.0 mi East 5.8 mph - N/A   Overcast
4:31 AM 53.6 °F 51.8 °F 94% 29.73 in 5.0 mi East 9.2 mph - N/A   Overcast
4:51 AM 55.4 °F 51.8 °F 88% 29.73 in 5.0 mi East 6.9 mph - N/A   Overcast
5:11 AM 55.4 °F 51.8 °F 88% 29.73 in 4.0 mi East 9.2 mph - N/A   Overcast
5:31 AM 55.4 °F 51.8 °F 88% 29.73 in 4.0 mi East 10.4 mph - N/A   Overcast
5:51 AM 55.4 °F 51.8 °F 88% 29.73 in 3.0 mi East 9.2 mph - N/A   Overcast
6:30 AM 55.4 °F 53.6 °F 94% 29.72 in 1.8 mi East 9.2 mph - N/A   Overcast
6:51 AM 55.4 °F 53.6 °F 94% 29.72 in 1.2 mi East 8.1 mph - N/A   Overcast
7:11 AM 57.2 °F 53.6 °F 88% 29.72 in 1.5 mi East 10.4 mph - N/A   Overcast
7:31 AM 57.2 °F 53.6 °F 88% 29.71 in 2.0 mi East 9.2 mph - N/A   Overcast
7:51 AM 57.2 °F 53.6 °F 88% 29.71 in 1.2 mi East 6.9 mph - N/A   Overcast
8:11 AM 57.2 °F 53.6 °F 88% 29.71 in 1.2 mi East 11.5 mph - N/A   Overcast
8:31 AM 57.2 °F 53.6 °F 88% 29.71 in 0.5 mi East 11.5 mph - N/A Fog Fog
8:51 AM 57.2 °F 53.6 °F 88% 29.71 in 0.2 mi East 9.2 mph 16.1 mph N/A Fog Fog
9:11 AM 57.2 °F 53.6 °F 88% 29.71 in 0.5 mi East 11.5 mph 16.1 mph N/A Fog Fog
9:31 AM 57.2 °F 53.6 °F 88% 29.70 in 0.2 mi East 15.0 mph 18.4 mph N/A Fog Fog
9:51 AM 57.2 °F 53.6 °F 88% 29.70 in 0.5 mi East 15.0 mph - N/A Fog Fog
10:11 AM 57.2 °F 53.6 °F 88% 29.69 in 0.5 mi ESE 11.5 mph 16.1 mph N/A Fog Fog
10:51 AM 57.2 °F 53.6 °F 88% 29.70 in 0.5 mi ESE 8.1 mph - N/A Fog Fog
11:11 AM 59.0 °F 55.4 °F 88% 29.70 in 0.5 mi ESE 9.2 mph - N/A Fog Fog
11:31 AM 59.0 °F 57.2 °F 94% 29.69 in 0.5 mi ESE 6.9 mph - N/A Fog Fog
11:51 AM 59.0 °F 57.2 °F 94% 29.69 in 0.5 mi SE 6.9 mph - N/A Fog Fog
12:11 PM 59.0 °F 57.2 °F 94% 29.68 in 0.2 mi SE 8.1 mph - N/A Fog Fog
12:31 PM 60.8 °F 59.0 °F 94% 29.67 in 0.8 mi SSE 6.9 mph - N/A   Overcast
12:50 PM 60.8 °F 59.0 °F 94% 29.67 in 1.5 mi South 9.2 mph - N/A   Overcast
1:31 PM 60.8 °F 59.0 °F 94% 29.65 in 2.0 mi South 10.4 mph - N/A   Overcast
1:51 PM 60.8 °F 59.0 °F 94% 29.66 in 2.5 mi SSW 12.7 mph - N/A   Overcast
2:11 PM 60.8 °F 57.2 °F 88% 29.66 in 3.0 mi SSW 12.7 mph - N/A   Overcast
2:31 PM 60.8 °F 59.0 °F 94% 29.66 in 3.0 mi SSW 9.2 mph - N/A   Overcast
2:51 PM 60.8 °F 59.0 °F 94% 29.66 in 2.5 mi SSW 9.2 mph - N/A   Overcast
3:11 PM 60.8 °F 57.2 °F 88% 29.66 in 3.0 mi SSW 12.7 mph - N/A   Overcast
3:31 PM 60.8 °F 55.4 °F 82% 29.67 in 3.0 mi SSW 10.4 mph - N/A   Overcast
3:51 PM 60.8 °F 55.4 °F 82% 29.67 in 2.5 mi South 9.2 mph - N/A   Overcast
4:11 PM 60.8 °F 55.4 °F 82% 29.67 in 3.0 mi South 9.2 mph - N/A   Overcast
4:30 PM 60.8 °F 55.4 °F 82% 29.66 in 3.0 mi South 10.4 mph - N/A   Overcast
4:51 PM 60.8 °F 55.4 °F 82% 29.67 in 3.0 mi South 9.2 mph - N/A   Overcast
5:11 PM 60.8 °F 55.4 °F 82% 29.68 in 4.0 mi South 9.2 mph - N/A   Overcast
5:31 PM 59.0 °F 55.4 °F 88% 29.68 in 5.0 mi SSW 10.4 mph - N/A   Overcast
5:51 PM 59.0 °F 55.4 °F 88% 29.70 in 5.0 mi SSW 10.4 mph - N/A   Overcast
6:11 PM 59.0 °F 55.4 °F 88% 29.71 in 5.0 mi South 8.1 mph - N/A   Overcast
6:31 PM 59.0 °F 55.4 °F 88% 29.69 in 5.0 mi South 6.9 mph - N/A   Overcast
6:51 PM 59.0 °F 55.4 °F 88% 29.70 in 7.0 mi South 6.9 mph - N/A   Overcast
7:11 PM 59.0 °F 55.4 °F 88% 29.72 in 5.0 mi SSW 6.9 mph - N/A   Overcast
7:31 PM 59.0 °F 55.4 °F 88% 29.72 in 5.0 mi SW 9.2 mph - N/A   Overcast
7:51 PM 59.0 °F 55.4 °F 88% 29.73 in 5.0 mi SSW 5.8 mph - N/A   Overcast
8:11 PM 59.0 °F 53.6 °F 82% 29.73 in 5.0 mi South 4.6 mph - N/A   Overcast
8:30 PM 57.2 °F 53.6 °F 88% 29.74 in 5.0 mi South 4.6 mph - N/A   Overcast
8:51 PM 57.2 °F 53.6 °F 88% 29.75 in 4.0 mi SSW 4.6 mph - N/A   Overcast
9:11 PM 57.2 °F 53.6 °F 88% 29.77 in 4.0 mi SSW 4.6 mph - N/A   Overcast
9:31 PM 57.2 °F 53.6 °F 88% 29.77 in 4.0 mi SSW 4.6 mph - N/A   Overcast
9:51 PM 57.2 °F 53.6 °F 88% 29.77 in 4.0 mi SSW 4.6 mph - N/A   Overcast
10:11 PM 57.2 °F 53.6 °F 88% 29.77 in 4.0 mi SSW 4.6 mph - N/A   Overcast
10:31 PM 57.2 °F 53.6 °F 88% 29.77 in 5.0 mi SW 5.8 mph - N/A   Overcast
10:51 PM 57.2 °F 53.6 °F 88% 29.78 in 5.0 mi SW 5.8 mph - N/A   Overcast
11:31 PM 57.2 °F 53.6 °F 88% 29.78 in 5.0 mi SW 5.8 mph - N/A   Overcast
11:51 PM 57.2 °F 53.6 °F 88% 29.78 in 5.0 mi SSW 4.6 mph - N/A   Overcast